Location: Bannatyne
(13.0833°N, 59.5333°W)
Time: 16:33:44
(UTC+00:00)

deb Explorer IX - Pass Details

Date: 26 January 2020
Orbit: 549 x 1099 km, 38.8° (Epoch: 21 February)

Event Time Altitude Azimuth Distance (km) Brightness Sun altitude
Rises 22:14:08 0° 226° (SW) 3,217 ? -5.0°
Reaches altitude 10° 22:16:26 10° 225° (SW) 2,373 ? -5.5°
Maximum altitude 22:22:07 77° 140° (SE) 922 ? -6.8°
Drops below altitude 10° 22:28:46 10° 55° (NE) 2,755 ? -8.3°
Enters shadow 22:29:13 - 54° (NE) 2,920 ? -8.5°
Sets 22:31:36 0° 53° (NE) 3,772 - -9.0°
